Volgo-balt 229 — UHZF — position and weather

sailwx.info

Track history (hours):
 
Tides and Currents Weather Stations Pressure Air Temp Water Temp Dewpoint Dewpoint Depression Visibility Wind Speed Wind Dir Waves Ship Positions

Volgo-balt 229

Last reported at 2014-Jul-22 21:34 UTC. Time now 2014-Jul-22 21:39 UTC.
Position N 59°32' E 022°44'.

Length 113 m; draft 3.7 m.

Type: Ship. MMSI: 273336300.

Date/timePositionNaut miles runAvg speedWind from/ knotsBaromVisibWave heightAir tempDewpointWater temp
2014-Jul-22 21:34N 59°32' E 022°44'17 8.2
2014-Jul-22 19:27N 59°37' E 023°17'7 8.1
2014-Jul-22 18:34N 59°39' E 023°30'9 8.1
2014-Jul-22 17:29N 59°42' E 023°47'8 8.0
2014-Jul-22 16:32N 59°44' E 024°02'8 8.4
2014-Jul-22 15:32N 59°46' E 024°17'60 8.4
2014-Jul-22 08:23N 59°59' E 026°15'7 8.1
2014-Jul-22 07:32N 60°01' E 026°28'113 7.5
2014-Jul-21 16:33N 59°54' E 030°13'1 1.3
2014-Jul-21 15:31N 59°55' E 030°15'0 0.0
2014-Jul-21 14:31N 59°55' E 030°15'0 0.0
2014-Jul-21 13:31N 59°55' E 030°15'0 0.0
2014-Jul-21 12:31N 59°55' E 030°15'1 0.6
2014-Jul-21 11:33N 59°55' E 030°16'1 0.7
2014-Jul-21 10:28N 59°56' E 030°17'0 0.0
2014-Jul-21 09:28N 59°56' E 030°17'0 0.0
2014-Jul-21 08:25N 59°56' E 030°17'0 0.0
2014-Jul-21 07:25N 59°56' E 030°17'0 0.0
2014-Jul-21 06:31N 59°56' E 030°17'0 0.0
2014-Jul-21 05:28N 59°56' E 030°17'0 0.0
2014-Jul-21 04:31N 59°56' E 030°17'0 0.0
2014-Jul-21 03:33N 59°56' E 030°17'0 0.0
2014-Jul-21 02:33N 59°56' E 030°17'0 0.0
2014-Jul-21 01:33N 59°56' E 030°17'0 0.0
2014-Jul-21 00:33N 59°56' E 030°17'  
Track history (hours):
 
Tides and Currents Weather Stations Pressure Air Temp Water Temp Dewpoint Dewpoint Depression Visibility Wind Speed Wind Dir Waves Ship Positions

Volgo-balt 229

Last reported at 2014-Jul-22 21:34 UTC. Time now 2014-Jul-22 21:39 UTC.
Position N 59°32' E 022°44'.

Length 113 m; draft 3.7 m.

Type: Ship. MMSI: 273336300.

Date/timePositionNaut miles runAvg speedWind from/ knotsBaromVisibWave heightAir tempDewpointWater temp
2014-Jul-22 21:34N 59°32' E 022°44'17 8.2
2014-Jul-22 19:27N 59°37' E 023°17'7 8.1
2014-Jul-22 18:34N 59°39' E 023°30'9 8.1
2014-Jul-22 17:29N 59°42' E 023°47'8 8.0
2014-Jul-22 16:32N 59°44' E 024°02'8 8.4
2014-Jul-22 15:32N 59°46' E 024°17'60 8.4
2014-Jul-22 08:23N 59°59' E 026°15'7 8.1
2014-Jul-22 07:32N 60°01' E 026°28'113 7.5
2014-Jul-21 16:33N 59°54' E 030°13'1 1.3
2014-Jul-21 15:31N 59°55' E 030°15'0 0.0
2014-Jul-21 14:31N 59°55' E 030°15'0 0.0
2014-Jul-21 13:31N 59°55' E 030°15'0 0.0
2014-Jul-21 12:31N 59°55' E 030°15'1 0.6
2014-Jul-21 11:33N 59°55' E 030°16'1 0.7
2014-Jul-21 10:28N 59°56' E 030°17'0 0.0
2014-Jul-21 09:28N 59°56' E 030°17'0 0.0
2014-Jul-21 08:25N 59°56' E 030°17'0 0.0
2014-Jul-21 07:25N 59°56' E 030°17'0 0.0
2014-Jul-21 06:31N 59°56' E 030°17'0 0.0
2014-Jul-21 05:28N 59°56' E 030°17'0 0.0
2014-Jul-21 04:31N 59°56' E 030°17'0 0.0
2014-Jul-21 03:33N 59°56' E 030°17'0 0.0
2014-Jul-21 02:33N 59°56' E 030°17'0 0.0
2014-Jul-21 01:33N 59°56' E 030°17'0 0.0
2014-Jul-21 00:33N 59°56' E 030°17'  

Dump ship's entire track history